Location: New York
(40.7127°N, 74.0060°W)
Time: 17:46:57
(UTC-04:00)

UNISAT 6 - Pass Details

Date: 03 May 2024
Orbit: 593 x 667 km, 97.7° (Epoch: 27 May)

Event Time Altitude Azimuth Distance (km) Brightness Sun altitude
Rises 05:05:57 0° 175° (S) 2,884 ? -8.6°
Reaches altitude 10° 05:08:11 10° 179° (S) 1,971 ? -8.2°
Maximum altitude 05:12:24 60° 259° (W) 700 ? -7.5°
Drops below altitude 10° 05:16:35 10° 340° (NNW) 1,950 ? -6.8°
Sets 05:18:47 0° 344° (NNW) 2,850 ? -6.5°
